"datetime","temp","dp","rain_mm","uv","solar","mb","wind_mph","gust_mph","windchill","rh"
"2022-05-25 00:00:00",7.0,6.1,0.0,0.0,0,1010.8,1,1,"",94
"2022-05-25 00:01:00",7.1,6.2,0.0,0.0,0,1010.8,1,1,"",94
"2022-05-25 00:02:00",7.1,6.2,0.0,0.0,0,1010.8,0,1,"",94
"2022-05-25 00:03:00",7.1,6.2,0.0,0.0,0,1010.8,0,1,"",94
"2022-05-25 00:04:00",7.1,6.2,0.0,0.0,0,1010.8,0,1,"",94
"2022-05-25 00:05:00",7.1,6.2,0.0,0.0,0,1010.8,0,0,"",94
"2022-05-25 00:06:00",7.1,6.2,0.0,0.0,0,1010.8,0,0,"",94
"2022-05-25 00:07:00",7.1,6.2,0.0,0.0,0,1010.8,0,0,"",94
"2022-05-25 00:08:00",7.0,6.1,0.0,0.0,0,1010.7,0,1,"",94
"2022-05-25 00:09:00",6.9,5.8,0.0,0.0,0,1010.8,0,1,"",93
"2022-05-25 00:10:00",6.9,5.8,0.0,0.0,0,1010.8,1,1,"",93
"2022-05-25 00:11:00",6.9,5.8,0.0,0.0,0,1010.8,1,1,"",93
"2022-05-25 00:12:00",6.9,5.8,0.0,0.0,0,1010.8,1,1,"",93
"2022-05-25 00:13:00",6.8,5.7,0.0,0.0,0,1010.8,0,1,"",93
"2022-05-25 00:14:00",6.8,5.7,0.0,0.0,0,1010.8,0,1,"",93
"2022-05-25 00:15:00",6.8,5.7,0.0,0.0,0,1010.8,0,1,"",93
"2022-05-25 00:16:00",6.8,5.7,0.0,0.0,0,1010.8,1,1,"",93
"2022-05-25 00:17:00",6.8,5.9,0.0,0.0,0,1010.9,1,1,"",94
"2022-05-25 00:18:00",6.8,5.7,0.0,0.0,0,1010.9,0,1,"",93
"2022-05-25 00:19:00",6.7,5.8,0.0,0.0,0,1010.9,0,0,"",94
"2022-05-25 00:20:00",6.8,5.9,0.0,0.0,0,1010.9,0,1,"",94
"2022-05-25 00:21:00",6.8,5.9,0.0,0.0,0,1010.9,0,0,"",94
"2022-05-25 00:22:00",6.8,5.9,0.0,0.0,0,1010.9,0,1,"",94
"2022-05-25 00:23:00",6.8,5.9,0.0,0.0,0,1010.9,0,0,"",94
"2022-05-25 00:24:00",6.7,5.8,0.0,0.0,0,1010.9,0,1,"",94
"2022-05-25 00:25:00",6.7,5.8,0.0,0.0,0,1010.9,0,0,"",94
"2022-05-25 00:26:00",6.7,5.8,0.0,0.0,0,1010.9,0,1,"",94
"2022-05-25 00:27:00",6.7,5.8,0.0,0.0,0,1011.0,0,1,"",94
"2022-05-25 00:28:00",6.7,5.8,0.0,0.0,0,1010.9,0,0,"",94
"2022-05-25 00:29:00",6.7,5.8,0.0,0.0,0,1010.9,0,0,"",94
"2022-05-25 00:30:00",6.6,5.7,0.0,0.0,0,1010.9,1,1,"",94
"2022-05-25 00:31:00",6.6,5.7,0.0,0.0,0,1010.9,1,1,"",94
"2022-05-25 00:32:00",6.6,5.7,0.0,0.0,0,1011.0,1,1,"",94
"2022-05-25 00:33:00",6.5,5.6,0.0,0.0,0,1010.9,1,1,"",94
"2022-05-25 00:34:00",6.4,5.5,0.0,0.0,0,1011.0,1,1,"",94
"2022-05-25 00:35:00",6.4,5.5,0.0,0.0,0,1011.0,1,1,"",94
"2022-05-25 00:36:00",6.4,5.5,0.0,0.0,0,1011.0,1,1,"",94
"2022-05-25 00:37:00",6.4,5.5,0.0,0.0,0,1011.0,0,1,"",94
"2022-05-25 00:38:00",6.4,5.5,0.0,0.0,0,1011.0,0,0,"",94
"2022-05-25 00:39:00",6.4,5.5,0.0,0.0,0,1011.1,0,1,"",94
"2022-05-25 00:40:00",6.4,5.5,0.0,0.0,0,1011.1,0,0,"",94
"2022-05-25 00:41:00",6.4,5.5,0.0,0.0,0,1011.1,0,0,"",94
"2022-05-25 00:42:00",6.4,5.5,0.0,0.0,0,1011.1,0,0,"",94
"2022-05-25 00:43:00",6.4,5.5,0.0,0.0,0,1011.1,0,0,"",94
"2022-05-25 00:44:00",6.3,5.4,0.0,0.0,0,1011.1,0,0,"",94
"2022-05-25 00:45:00",6.3,5.4,0.0,0.0,0,1011.2,0,1,"",94
"2022-05-25 00:46:00",6.3,5.4,0.0,0.0,0,1011.2,0,1,"",94
"2022-05-25 00:47:00",6.3,5.4,0.0,0.0,0,1011.1,0,0,"",94
"2022-05-25 00:48:00",6.3,5.4,0.0,0.0,0,1011.1,0,1,"",94
"2022-05-25 00:49:00",6.3,5.4,0.0,0.0,0,1011.1,0,1,"",94
"2022-05-25 00:50:00",6.3,5.4,0.0,0.0,0,1011.2,0,1,"",94
"2022-05-25 00:51:00",6.3,5.4,0.0,0.0,0,1011.1,0,1,"",94
"2022-05-25 00:52:00",6.3,5.4,0.0,0.0,0,1011.2,0,0,"",94
"2022-05-25 00:53:00",6.3,5.4,0.0,0.0,0,1011.1,0,0,"",94
"2022-05-25 00:54:00",6.3,5.4,0.0,0.0,0,1011.2,0,1,"",94
"2022-05-25 00:55:00",6.3,5.4,0.0,0.0,0,1011.2,0,0,"",94
"2022-05-25 00:56:00",6.3,5.4,0.0,0.0,0,1011.1,0,1,"",94
"2022-05-25 00:57:00",6.3,5.4,0.0,0.0,0,1011.1,0,1,"",94
"2022-05-25 00:58:00",6.3,5.4,0.0,0.0,0,1011.1,0,1,"",94
"2022-05-25 00:59:00",6.2,5.3,0.0,0.0,0,1011.1,0,0,"",94
"2022-05-25 01:00:00",6.2,5.3,0.0,0.0,0,1011.1,0,1,"",94
"2022-05-25 01:01:00",6.3,5.6,0.0,0.0,0,1011.1,0,1,"",95
"2022-05-25 01:02:00",6.3,5.6,0.0,0.0,0,1011.1,0,0,"",95
"2022-05-25 01:03:00",6.3,5.6,0.0,0.0,0,1011.1,0,1,"",95
"2022-05-25 01:04:00",6.3,5.6,0.0,0.0,0,1011.1,0,1,"",95
"2022-05-25 01:05:00",6.3,5.4,0.0,0.0,0,1011.1,1,2,"",94
"2022-05-25 01:06:00",6.3,5.4,0.0,0.0,0,1011.1,0,0,"",94
"2022-05-25 01:07:00",6.3,5.4,0.0,0.0,0,1011.1,0,1,"",94
"2022-05-25 01:08:00",6.3,5.4,0.0,0.0,0,1011.1,0,1,"",94
"2022-05-25 01:09:00",6.3,5.6,0.0,0.0,0,1011.0,0,0,"",95
"2022-05-25 01:10:00",6.3,5.6,0.0,0.0,0,1011.1,0,1,"",95
"2022-05-25 01:11:00",6.3,5.6,0.0,0.0,0,1011.1,0,0,"",95
"2022-05-25 01:12:00",6.3,5.6,0.0,0.0,0,1011.1,0,0,"",95
"2022-05-25 01:13:00",6.4,5.7,0.0,0.0,0,1011.1,0,1,"",95
"2022-05-25 01:14:00",6.4,5.7,0.0,0.0,0,1011.1,0,1,"",95
"2022-05-25 01:15:00",6.4,5.7,0.0,0.0,0,1011.1,0,1,"",95
"2022-05-25 01:16:00",6.4,5.7,0.0,0.0,0,1011.1,0,1,"",95
"2022-05-25 01:17:00",6.4,5.7,0.0,0.0,0,1011.1,0,1,"",95
"2022-05-25 01:18:00",6.4,5.7,0.0,0.0,0,1011.2,0,1,"",95
"2022-05-25 01:19:00",6.5,5.8,0.0,0.0,0,1011.1,0,1,"",95
"2022-05-25 01:20:00",6.5,5.8,0.0,0.0,0,1011.2,0,1,"",95
"2022-05-25 01:21:00",6.4,5.7,0.0,0.0,0,1011.1,1,2,"",95
"2022-05-25 01:22:00",6.5,5.8,0.0,0.0,0,1011.1,0,1,"",95
"2022-05-25 01:23:00",6.4,5.7,0.0,0.0,0,1011.2,0,1,"",95
"2022-05-25 01:24:00",6.5,5.8,0.0,0.0,0,1011.2,0,1,"",95
"2022-05-25 01:25:00",6.6,5.9,0.0,0.0,0,1011.2,1,2,"",95
"2022-05-25 01:26:00",6.5,5.8,0.0,0.0,0,1011.2,1,1,"",95
"2022-05-25 01:27:00",6.6,5.9,0.0,0.0,0,1011.2,1,2,"",95
"2022-05-25 01:28:00",6.6,5.9,0.0,0.0,0,1011.2,0,1,"",95
"2022-05-25 01:29:00",6.6,5.9,0.0,0.0,0,1011.3,0,1,"",95
"2022-05-25 01:30:00",6.6,5.9,0.0,0.0,0,1011.3,0,1,"",95
"2022-05-25 01:31:00",6.6,5.9,0.0,0.0,0,1011.3,1,2,"",95
"2022-05-25 01:32:00",6.6,5.9,0.0,0.0,0,1011.3,0,1,"",95
"2022-05-25 01:33:00",6.6,5.9,0.0,0.0,0,1011.3,0,1,"",95
"2022-05-25 01:34:00",6.6,5.9,0.0,0.0,0,1011.3,0,1,"",95
"2022-05-25 01:35:00",6.7,6.0,0.0,0.0,0,1011.3,1,1,"",95
"2022-05-25 01:36:00",6.7,6.0,0.0,0.0,0,1011.3,0,1,"",95
"2022-05-25 01:37:00",6.8,6.1,0.0,0.0,0,1011.3,0,1,"",95
"2022-05-25 01:38:00",6.8,6.1,0.0,0.0,0,1011.3,1,2,"",95
"2022-05-25 01:39:00",6.8,6.1,0.0,0.0,0,1011.3,0,1,"",95
"2022-05-25 01:40:00",6.8,6.1,0.0,0.0,0,1011.3,0,1,"",95
"2022-05-25 01:41:00",6.8,6.1,0.0,0.0,0,1011.3,0,1,"",95
"2022-05-25 01:42:00",6.9,6.2,0.0,0.0,0,1011.3,0,1,"",95
"2022-05-25 01:43:00",6.9,6.2,0.0,0.0,0,1011.3,0,1,"",95
"2022-05-25 01:44:00",6.9,6.2,0.0,0.0,0,1011.4,0,1,"",95
"2022-05-25 01:45:00",6.9,6.2,0.0,0.0,0,1011.4,0,1,"",95
"2022-05-25 01:46:00",6.9,6.2,0.0,0.0,0,1011.4,0,1,"",95
"2022-05-25 01:47:00",6.9,6.2,0.0,0.0,0,1011.4,1,2,"",95
"2022-05-25 01:48:00",6.9,6.2,0.0,0.0,0,1011.5,1,2,"",95
"2022-05-25 01:49:00",6.9,6.2,0.0,0.0,0,1011.4,0,1,"",95
"2022-05-25 01:50:00",6.9,6.2,0.0,0.0,0,1011.4,1,2,"",95
"2022-05-25 01:51:00",7.0,6.3,0.0,0.0,0,1011.4,1,1,"",95
"2022-05-25 01:52:00",7.1,6.4,0.0,0.0,0,1011.4,0,1,"",95
"2022-05-25 01:53:00",7.1,6.4,0.0,0.0,0,1011.4,1,2,"",95
"2022-05-25 01:54:00",7.1,6.4,0.0,0.0,0,1011.4,0,0,"",95
"2022-05-25 01:55:00",7.2,6.5,0.0,0.0,0,1011.4,1,2,"",95
"2022-05-25 01:56:00",7.2,6.5,0.0,0.0,0,1011.4,0,2,"",95
"2022-05-25 01:57:00",7.1,6.4,0.0,0.0,0,1011.4,1,1,"",95
"2022-05-25 01:58:00",7.1,6.4,0.0,0.0,0,1011.4,1,2,"",95
"2022-05-25 01:59:00",7.2,6.5,0.0,0.0,0,1011.4,1,2,"",95
"2022-05-25 02:00:00",7.2,6.5,0.0,0.0,0,1011.4,0,1,"",95
"2022-05-25 02:01:00",7.3,6.6,0.0,0.0,0,1011.4,0,1,"",95
"2022-05-25 02:02:00",7.3,6.6,0.0,0.0,0,1011.4,0,1,"",95
"2022-05-25 02:03:00",7.3,6.6,0.0,0.0,0,1011.4,0,1,"",95
"2022-05-25 02:04:00",7.3,6.6,0.0,0.0,0,1011.4,0,1,"",95
"2022-05-25 02:05:00",7.3,6.6,0.0,0.0,0,1011.4,0,1,"",95
"2022-05-25 02:06:00",7.3,6.6,0.0,0.0,0,1011.4,0,1,"",95
"2022-05-25 02:07:00",7.3,6.6,0.0,0.0,0,1011.4,0,1,"",95
"2022-05-25 02:08:00",7.3,6.6,0.0,0.0,0,1011.4,0,1,"",95
"2022-05-25 02:09:00",7.3,6.6,0.0,0.0,0,1011.4,1,1,"",95
"2022-05-25 02:10:00",7.3,6.6,0.0,0.0,0,1011.4,0,1,"",95
"2022-05-25 02:11:00",7.3,6.6,0.0,0.0,0,1011.4,0,1,"",95
"2022-05-25 02:12:00",7.3,6.6,0.0,0.0,0,1011.4,0,1,"",95
"2022-05-25 02:13:00",7.4,6.7,0.0,0.0,0,1011.4,1,1,"",95
"2022-05-25 02:14:00",7.4,6.7,0.0,0.0,0,1011.4,0,1,"",95
"2022-05-25 02:15:00",7.4,6.7,0.0,0.0,0,1011.4,0,1,"",95
"2022-05-25 02:16:00",7.4,6.7,0.0,0.0,0,1011.4,0,0,"",95
"2022-05-25 02:17:00",7.3,6.6,0.0,0.0,0,1011.3,1,2,"",95
"2022-05-25 02:18:00",7.3,6.6,0.0,0.0,0,1011.3,0,1,"",95
"2022-05-25 02:19:00",7.3,6.6,0.0,0.0,0,1011.4,1,1,"",95
"2022-05-25 02:20:00",7.3,6.6,0.0,0.0,0,1011.4,1,1,"",95
"2022-05-25 02:21:00",7.3,6.6,0.0,0.0,0,1011.4,0,1,"",95
"2022-05-25 02:22:00",7.3,6.6,0.0,0.0,0,1011.4,0,1,"",95
"2022-05-25 02:23:00",7.4,6.7,0.0,0.0,0,1011.3,1,1,"",95
"2022-05-25 02:24:00",7.3,6.6,0.0,0.0,0,1011.4,0,1,"",95
"2022-05-25 02:25:00",7.3,6.6,0.0,0.0,0,1011.3,0,1,"",95
"2022-05-25 02:26:00",7.3,6.6,0.0,0.0,0,1011.4,0,1,"",95
"2022-05-25 02:27:00",7.3,6.6,0.0,0.0,0,1011.4,0,2,"",95
"2022-05-25 02:28:00",7.3,6.6,0.0,0.0,0,1011.4,0,1,"",95
"2022-05-25 02:29:00",7.3,6.6,0.0,0.0,0,1011.4,0,1,"",95
"2022-05-25 02:30:00",7.3,6.6,0.0,0.0,0,1011.5,1,1,"",95
"2022-05-25 02:31:00",7.3,6.6,0.0,0.0,0,1011.5,1,1,"",95
"2022-05-25 02:32:00",7.3,6.6,0.0,0.0,0,1011.5,0,1,"",95
"2022-05-25 02:33:00",7.3,6.6,0.0,0.0,0,1011.5,1,1,"",95
"2022-05-25 02:34:00",7.4,6.7,0.0,0.0,0,1011.5,1,1,"",95
"2022-05-25 02:35:00",7.4,6.7,0.0,0.0,0,1011.5,0,1,"",95
"2022-05-25 02:36:00",7.4,6.7,0.0,0.0,0,1011.5,1,1,"",95
"2022-05-25 02:37:00",7.3,6.6,0.0,0.0,0,1011.5,0,1,"",95
"2022-05-25 02:38:00",7.4,6.7,0.0,0.0,0,1011.5,1,2,"",95
"2022-05-25 02:39:00",7.4,6.7,0.0,0.0,0,1011.5,1,1,"",95
"2022-05-25 02:40:00",7.4,6.7,0.0,0.0,0,1011.6,1,1,"",95
"2022-05-25 02:41:00",7.4,6.7,0.0,0.0,0,1011.5,0,1,"",95
"2022-05-25 02:42:00",7.4,6.7,0.0,0.0,0,1011.5,0,1,"",95
"2022-05-25 02:43:00",7.4,6.7,0.0,0.0,0,1011.5,0,1,"",95
"2022-05-25 02:44:00",7.4,6.7,0.0,0.0,0,1011.5,0,1,"",95
"2022-05-25 02:45:00",7.4,6.7,0.0,0.0,0,1011.5,0,1,"",95
"2022-05-25 02:46:00",7.4,6.7,0.0,0.0,0,1011.5,0,1,"",95
"2022-05-25 02:47:00",7.4,6.7,0.0,0.0,0,1011.4,0,1,"",95
"2022-05-25 02:48:00",7.4,6.7,0.0,0.0,0,1011.4,0,1,"",95
"2022-05-25 02:49:00",7.4,6.7,0.0,0.0,0,1011.4,0,1,"",95
"2022-05-25 02:50:00",7.3,6.6,0.0,0.0,0,1011.4,0,1,"",95
"2022-05-25 02:51:00",7.4,6.7,0.0,0.0,0,1011.4,0,1,"",95
"2022-05-25 02:52:00",7.4,6.8,0.0,0.0,0,1011.5,1,1,"",96
"2022-05-25 02:53:00",7.3,6.6,0.0,0.0,0,1011.4,0,1,"",95
"2022-05-25 02:54:00",7.4,6.7,0.0,0.0,0,1011.4,0,1,"",95
"2022-05-25 02:55:00",7.4,6.7,0.0,0.0,0,1011.4,0,1,"",95
"2022-05-25 02:56:00",7.4,6.7,0.0,0.0,0,1011.4,0,1,"",95
"2022-05-25 02:57:00",7.4,6.7,0.0,0.0,0,1011.3,0,0,"",95
"2022-05-25 02:58:00",7.4,6.7,0.0,0.0,0,1011.3,0,1,"",95
"2022-05-25 02:59:00",7.4,6.7,0.0,0.0,0,1011.3,0,1,"",95
"2022-05-25 03:00:00",7.4,6.7,0.0,0.0,0,1011.3,0,1,"",95
"2022-05-25 03:01:00",7.3,6.7,0.0,0.0,0,1011.3,0,1,"",96
"2022-05-25 03:02:00",7.3,6.6,0.0,0.0,0,1011.4,0,0,"",95
"2022-05-25 03:03:00",7.3,6.7,0.0,0.0,0,1011.4,0,1,"",96
"2022-05-25 03:04:00",7.3,6.6,0.0,0.0,0,1011.4,0,1,"",95
"2022-05-25 03:05:00",7.3,6.6,0.0,0.0,0,1011.4,0,1,"",95
"2022-05-25 03:06:00",7.3,6.6,0.0,0.0,0,1011.4,0,1,"",95
"2022-05-25 03:07:00",7.3,6.6,0.0,0.0,0,1011.4,0,1,"",95
"2022-05-25 03:08:00",7.3,6.6,0.0,0.0,0,1011.4,0,1,"",95
"2022-05-25 03:09:00",7.3,6.6,0.0,0.0,0,1011.5,0,1,"",95
"2022-05-25 03:10:00",7.3,6.6,0.0,0.0,0,1011.5,0,1,"",95
"2022-05-25 03:11:00",7.3,6.6,0.0,0.0,0,1011.5,0,1,"",95
"2022-05-25 03:12:00",7.3,6.6,0.0,0.0,0,1011.5,0,1,"",95
"2022-05-25 03:13:00",7.3,6.6,0.0,0.0,0,1011.5,0,0,"",95
"2022-05-25 03:14:00",7.3,6.6,0.0,0.0,0,1011.5,0,1,"",95
"2022-05-25 03:15:00",7.3,6.6,0.0,0.0,0,1011.5,0,0,"",95
"2022-05-25 03:16:00",7.3,6.6,0.0,0.0,0,1011.4,0,1,"",95
"2022-05-25 03:17:00",7.3,6.6,0.0,0.0,0,1011.4,0,1,"",95
"2022-05-25 03:18:00",7.3,6.6,0.0,0.0,0,1011.4,0,0,"",95
"2022-05-25 03:19:00",7.4,6.8,0.0,0.0,0,1011.4,0,1,"",96
"2022-05-25 03:20:00",7.4,6.8,0.0,0.0,0,1011.4,0,1,"",96
"2022-05-25 03:21:00",7.4,6.8,0.0,0.0,0,1011.4,0,1,"",96
"2022-05-25 03:22:00",7.4,6.8,0.0,0.0,0,1011.4,0,1,"",96
"2022-05-25 03:23:00",7.4,6.8,0.0,0.0,0,1011.4,0,0,"",96
"2022-05-25 03:24:00",7.4,6.8,0.0,0.0,0,1011.4,0,0,"",96
"2022-05-25 03:25:00",7.4,6.8,0.0,0.0,0,1011.4,0,1,"",96
"2022-05-25 03:26:00",7.4,6.8,0.0,0.0,0,1011.4,0,1,"",96
"2022-05-25 03:27:00",7.4,6.8,0.0,0.0,0,1011.4,0,0,"",96
"2022-05-25 03:28:00",7.4,6.8,0.0,0.0,0,1011.3,0,1,"",96
"2022-05-25 03:29:00",7.4,6.8,0.0,0.0,0,1011.4,0,1,"",96
"2022-05-25 03:30:00",7.4,6.8,0.0,0.0,0,1011.3,0,1,"",96
"2022-05-25 03:31:00",7.5,6.9,0.0,0.0,0,1011.3,0,1,"",96
"2022-05-25 03:32:00",7.5,6.9,0.0,0.0,0,1011.4,0,1,"",96
"2022-05-25 03:33:00",7.5,6.9,0.0,0.0,0,1011.4,0,1,"",96
"2022-05-25 03:34:00",7.6,7.0,0.0,0.0,0,1011.5,0,1,"",96
"2022-05-25 03:35:00",7.6,7.0,0.0,0.0,0,1011.4,0,1,"",96
"2022-05-25 03:36:00",7.6,7.0,0.0,0.0,0,1011.4,0,1,"",96
"2022-05-25 03:37:00",7.6,7.0,0.0,0.0,0,1011.4,1,1,"",96
"2022-05-25 03:38:00",7.6,7.0,0.0,0.0,0,1011.4,1,1,"",96
"2022-05-25 03:39:00",7.6,7.0,0.0,0.0,0,1011.3,1,2,"",96
"2022-05-25 03:40:00",7.6,7.0,0.0,0.0,0,1011.3,1,2,"",96
"2022-05-25 03:41:00",7.6,7.0,0.0,0.0,0,1011.4,1,2,"",96
"2022-05-25 03:42:00",7.6,7.0,0.0,0.0,0,1011.3,1,1,"",96
"2022-05-25 03:43:00",7.6,7.0,0.0,0.0,0,1011.4,1,1,"",96
"2022-05-25 03:44:00",7.7,7.1,0.0,0.0,0,1011.4,0,1,"",96
"2022-05-25 03:45:00",7.7,7.1,0.0,0.0,0,1011.3,1,1,"",96
"2022-05-25 03:46:00",7.7,7.1,0.0,0.0,0,1011.4,0,1,"",96
"2022-05-25 03:47:00",7.7,7.1,0.0,0.0,0,1011.4,0,1,"",96
"2022-05-25 03:48:00",7.7,7.1,0.0,0.0,0,1011.3,0,1,"",96
"2022-05-25 03:49:00",7.7,7.1,0.0,0.0,0,1011.4,0,1,"",96
"2022-05-25 03:50:00",7.7,7.1,0.0,0.0,0,1011.3,0,1,"",96
"2022-05-25 03:51:00",7.8,7.2,0.0,0.0,0,1011.3,1,2,"",96
"2022-05-25 03:52:00",7.7,7.1,0.0,0.0,0,1011.4,1,2,"",96
"2022-05-25 03:53:00",7.7,7.1,0.0,0.0,0,1011.3,1,2,"",96
"2022-05-25 03:54:00",7.8,7.2,0.0,0.0,0,1011.3,1,2,"",96
"2022-05-25 03:55:00",7.8,7.2,0.0,0.0,0,1011.3,1,2,"",96
"2022-05-25 03:56:00",7.7,7.1,0.0,0.0,0,1011.4,1,2,"",96
"2022-05-25 03:57:00",7.7,7.1,0.0,0.0,0,1011.4,1,2,"",96
"2022-05-25 03:58:00",7.8,7.2,0.0,0.0,0,1011.3,1,1,"",96
"2022-05-25 03:59:00",7.7,7.1,0.0,0.0,0,1011.3,0,1,"",96
"2022-05-25 04:00:00",7.7,7.1,0.0,0.0,0,1011.4,0,1,"",96
"2022-05-25 04:01:00",7.7,7.1,0.0,0.0,0,1011.4,0,1,"",96
"2022-05-25 04:02:00",7.7,7.1,0.0,0.0,0,1011.4,0,1,"",96
"2022-05-25 04:03:00",7.7,7.1,0.0,0.0,0,1011.4,1,2,"",96
"2022-05-25 04:04:00",7.6,6.9,0.0,0.0,0,1011.4,1,2,"",95
"2022-05-25 04:05:00",7.6,7.0,0.0,0.0,0,1011.3,1,1,"",96
"2022-05-25 04:06:00",7.6,6.9,0.0,0.0,0,1011.3,1,1,"",95
"2022-05-25 04:07:00",7.6,6.9,0.0,0.0,0,1011.3,1,1,"",95
"2022-05-25 04:08:00",7.6,7.0,0.0,0.0,0,1011.3,1,1,"",96
"2022-05-25 04:09:00",7.6,7.0,0.0,0.0,0,1011.3,0,1,"",96
"2022-05-25 04:10:00",7.6,7.0,0.0,0.0,0,1011.3,1,1,"",96
"2022-05-25 04:11:00",7.5,6.9,0.0,0.0,0,1011.3,1,1,"",96
"2022-05-25 04:12:00",7.5,6.9,0.0,0.0,0,1011.3,1,1,"",96
"2022-05-25 04:13:00",7.4,6.7,0.0,0.0,0,1011.3,1,1,"",95
"2022-05-25 04:14:00",7.4,6.7,0.0,0.0,0,1011.4,1,1,"",95
"2022-05-25 04:15:00",7.4,6.7,0.0,0.0,0,1011.3,1,1,"",95
"2022-05-25 04:16:00",7.3,6.6,0.0,0.0,0,1011.4,1,2,"",95
"2022-05-25 04:17:00",7.3,6.6,0.0,0.0,0,1011.4,1,2,"",95
"2022-05-25 04:18:00",7.3,6.6,0.0,0.0,0,1011.3,1,1,"",95
"2022-05-25 04:19:00",7.3,6.6,0.0,0.0,0,1011.3,0,1,"",95
"2022-05-25 04:20:00",7.3,6.6,0.0,0.0,0,1011.3,1,2,"",95
"2022-05-25 04:21:00",7.3,6.6,0.0,0.0,0,1011.3,1,1,"",95
"2022-05-25 04:22:00",7.3,6.6,0.0,0.0,0,1011.4,1,1,"",95
"2022-05-25 04:23:00",7.3,6.6,0.0,0.0,0,1011.3,1,2,"",95
"2022-05-25 04:24:00",7.3,6.6,0.0,0.0,0,1011.4,1,2,"",95
"2022-05-25 04:25:00",7.3,6.6,0.0,0.0,0,1011.4,1,1,"",95
"2022-05-25 04:26:00",7.2,6.5,0.0,0.0,0,1011.3,1,2,"",95
"2022-05-25 04:27:00",7.3,6.6,0.0,0.0,0,1011.4,1,1,"",95
"2022-05-25 04:28:00",7.2,6.5,0.0,0.0,0,1011.4,1,1,"",95
"2022-05-25 04:29:00",7.3,6.7,0.0,0.0,0,1011.4,1,1,"",96
"2022-05-25 04:30:00",7.3,6.7,0.0,0.0,0,1011.4,1,1,"",96
"2022-05-25 04:31:00",7.3,6.7,0.0,0.0,0,1011.4,1,1,"",96
"2022-05-25 04:32:00",7.3,6.7,0.0,0.0,0,1011.4,1,2,"",96
"2022-05-25 04:33:00",7.3,6.7,0.0,0.0,0,1011.4,1,1,"",96
"2022-05-25 04:34:00",7.3,6.7,0.0,0.0,0,1011.4,1,1,"",96
"2022-05-25 04:35:00",7.3,6.7,0.0,0.0,0,1011.4,1,2,"",96
"2022-05-25 04:36:00",7.3,6.7,0.0,0.0,0,1011.4,1,2,"",96
"2022-05-25 04:37:00",7.3,6.7,0.0,0.0,0,1011.4,1,2,"",96
"2022-05-25 04:38:00",7.3,6.7,0.0,0.0,0,1011.4,1,1,"",96
"2022-05-25 04:39:00",7.3,6.7,0.0,0.0,0,1011.4,1,1,"",96
"2022-05-25 04:40:00",7.3,6.7,0.0,0.0,0,1011.4,1,1,"",96
"2022-05-25 04:41:00",7.3,6.7,0.0,0.0,0,1011.4,1,1,"",96
"2022-05-25 04:42:00",7.3,6.7,0.0,0.0,0,1011.4,1,1,"",96
"2022-05-25 04:43:00",7.4,6.8,0.0,0.0,0,1011.4,1,1,"",96
"2022-05-25 04:44:00",7.4,6.8,0.0,0.0,0,1011.3,0,1,"",96
"2022-05-25 04:45:00",7.4,6.8,0.0,0.0,0,1011.3,1,1,"",96
"2022-05-25 04:46:00",7.4,6.8,0.0,0.0,0,1011.3,0,1,"",96
"2022-05-25 04:47:00",7.4,6.8,0.0,0.0,0,1011.3,0,1,"",96
"2022-05-25 04:48:00",7.4,6.8,0.0,0.0,0,1011.3,1,1,"",96
"2022-05-25 04:49:00",7.4,6.8,0.0,0.0,0,1011.3,0,1,"",96
"2022-05-25 04:50:00",7.4,6.8,0.0,0.0,0,1011.3,1,1,"",96
"2022-05-25 04:51:00",7.4,6.8,0.0,0.0,0,1011.2,0,1,"",96
"2022-05-25 04:52:00",7.4,6.8,0.0,0.0,0,1011.2,0,1,"",96
"2022-05-25 04:53:00",7.4,6.8,0.0,0.0,0,1011.2,1,1,"",96
"2022-05-25 04:54:00",7.5,6.9,0.0,0.0,0,1011.3,1,1,"",96
"2022-05-25 04:55:00",7.5,6.9,0.0,0.0,0,1011.3,0,1,"",96
"2022-05-25 04:56:00",7.5,6.9,0.0,0.0,0,1011.3,1,2,"",96
"2022-05-25 04:57:00",7.5,6.9,0.0,0.0,0,1011.3,0,1,"",96
"2022-05-25 04:58:00",7.5,6.9,0.0,0.0,0,1011.3,1,1,"",96
"2022-05-25 04:59:00",7.6,7.0,0.0,0.0,0,1011.3,0,1,"",96
"2022-05-25 05:00:00",7.6,7.0,0.0,0.0,0,1011.3,0,1,"",96
"2022-05-25 05:01:00",7.6,7.0,0.0,0.0,0,1011.3,0,1,"",96
"2022-05-25 05:02:00",7.6,7.0,0.0,0.0,0,1011.3,0,1,"",96
"2022-05-25 05:03:00",7.6,7.0,0.0,0.0,0,1011.3,0,1,"",96
"2022-05-25 05:04:00",7.6,7.0,0.0,0.0,0,1011.3,1,1,"",96
"2022-05-25 05:05:00",7.7,7.1,0.0,0.0,0,1011.4,0,1,"",96
"2022-05-25 05:06:00",7.7,7.1,0.0,0.0,0,1011.4,0,1,"",96
"2022-05-25 05:07:00",7.7,7.1,0.0,0.0,0,1011.5,0,1,"",96
"2022-05-25 05:08:00",7.7,7.1,0.0,0.0,0,1011.5,0,1,"",96
"2022-05-25 05:09:00",7.7,7.1,0.0,0.0,0,1011.4,1,1,"",96
"2022-05-25 05:10:00",7.7,7.1,0.0,0.0,0,1011.5,0,1,"",96
"2022-05-25 05:11:00",7.8,7.2,0.0,0.0,0,1011.4,1,1,"",96
"2022-05-25 05:12:00",7.8,7.2,0.0,0.0,0,1011.4,0,1,"",96
"2022-05-25 05:13:00",7.8,7.2,0.0,0.0,0,1011.4,0,1,"",96
"2022-05-25 05:14:00",7.8,7.2,0.0,0.0,0,1011.4,0,1,"",96
"2022-05-25 05:15:00",7.8,7.2,0.0,0.0,0,1011.4,1,1,"",96
"2022-05-25 05:16:00",7.8,7.2,0.0,0.0,0,1011.4,1,2,"",96
"2022-05-25 05:17:00",7.8,7.2,0.0,0.0,0,1011.4,1,2,"",96
"2022-05-25 05:18:00",7.8,7.2,0.0,0.0,0,1011.4,0,1,"",96
"2022-05-25 05:19:00",7.9,7.3,0.0,0.0,0,1011.4,1,2,"",96
"2022-05-25 05:20:00",7.9,7.3,0.0,0.0,0,1011.4,1,2,"",96
"2022-05-25 05:21:00",7.9,7.3,0.0,0.0,5,1011.4,1,2,"",96
"2022-05-25 05:22:00",7.9,7.3,0.0,0.0,5,1011.4,1,2,"",96
"2022-05-25 05:23:00",7.9,7.3,0.0,0.0,5,1011.4,1,2,"",96
"2022-05-25 05:24:00",8.0,7.4,0.0,0.0,5,1011.4,1,2,"",96
"2022-05-25 05:25:00",8.1,7.5,0.0,0.0,5,1011.3,1,2,"",96
"2022-05-25 05:26:00",8.1,7.5,0.0,0.0,7,1011.3,1,2,"",96
"2022-05-25 05:27:00",8.1,7.5,0.0,0.0,7,1011.4,1,2,"",96
"2022-05-25 05:28:00",8.1,7.5,0.0,0.0,7,1011.3,1,2,"",96
"2022-05-25 05:29:00",8.2,7.6,0.0,0.0,9,1011.4,1,2,"",96
"2022-05-25 05:30:00",8.2,7.6,0.0,0.0,9,1011.4,1,2,"",96
"2022-05-25 05:31:00",8.2,7.6,0.0,0.0,11,1011.4,1,1,"",96
"2022-05-25 05:32:00",8.3,7.7,0.0,0.0,11,1011.4,1,2,"",96
"2022-05-25 05:33:00",8.3,7.7,0.0,0.0,11,1011.5,0,1,"",96
"2022-05-25 05:34:00",8.3,7.7,0.0,0.0,11,1011.5,0,1,"",96
"2022-05-25 05:35:00",8.3,7.7,0.0,0.0,11,1011.5,0,2,"",96
"2022-05-25 05:36:00",8.3,7.7,0.0,0.0,11,1011.5,0,1,"",96
"2022-05-25 05:37:00",8.3,7.7,0.0,0.0,11,1011.5,1,2,"",96
"2022-05-25 05:38:00",8.3,7.7,0.0,0.0,11,1011.5,1,1,"",96
"2022-05-25 05:39:00",8.3,7.7,0.0,0.0,9,1011.5,0,1,"",96
"2022-05-25 05:40:00",8.3,7.7,0.0,0.0,9,1011.6,1,1,"",96
"2022-05-25 05:41:00",8.3,7.7,0.0,0.0,9,1011.6,0,1,"",96
"2022-05-25 05:42:00",8.3,7.7,0.0,0.0,7,1011.6,1,1,"",96
"2022-05-25 05:43:00",8.3,7.7,0.0,0.0,9,1011.7,0,2,"",96
"2022-05-25 05:44:00",8.3,7.7,0.0,0.0,9,1011.7,0,2,"",96
"2022-05-25 05:45:00",8.3,7.7,0.0,0.0,9,1011.7,1,1,"",96
"2022-05-25 05:46:00",8.3,7.7,0.0,0.0,9,1011.7,0,1,"",96
"2022-05-25 05:47:00",8.3,7.7,0.0,0.0,11,1011.7,1,2,"",96
"2022-05-25 05:48:00",8.3,7.7,0.0,0.0,12,1011.7,1,2,"",96
"2022-05-25 05:49:00",8.3,7.7,0.0,0.0,12,1011.7,1,1,"",96
"2022-05-25 05:50:00",8.3,7.7,0.0,0.0,14,1011.7,1,2,"",96
"2022-05-25 05:51:00",8.3,7.7,0.0,0.0,14,1011.6,0,1,"",96
"2022-05-25 05:52:00",8.3,7.7,0.0,0.0,14,1011.7,1,2,"",96
"2022-05-25 05:53:00",8.3,7.7,0.0,0.0,16,1011.7,1,2,"",96
"2022-05-25 05:54:00",8.4,7.8,0.0,0.0,14,1011.7,1,2,"",96
"2022-05-25 05:55:00",8.4,7.8,0.0,0.0,14,1011.7,1,2,"",96
"2022-05-25 05:56:00",8.4,7.8,0.0,0.0,14,1011.7,1,2,"",96
"2022-05-25 05:57:00",8.4,7.8,0.0,0.0,16,1011.7,2,3,"",96
"2022-05-25 05:58:00",8.5,7.9,0.0,0.0,18,1011.7,1,2,"",96
"2022-05-25 05:59:00",8.5,7.9,0.0,0.0,23,1011.7,1,2,"",96
"2022-05-25 06:00:00",8.6,8.0,0.0,0.0,25,1011.7,1,2,"",96
"2022-05-25 06:01:00",8.6,8.0,0.0,0.0,28,1011.7,1,2,"",96
"2022-05-25 06:02:00",8.6,8.0,0.0,0.0,33,1011.7,2,4,7.7,96
"2022-05-25 06:03:00",8.6,8.0,0.0,0.0,37,1011.7,1,2,"",96
"2022-05-25 06:04:00",8.7,8.1,0.0,0.0,40,1011.7,1,2,"",96
"2022-05-25 06:05:00",8.8,8.2,0.0,0.0,47,1011.7,1,2,"",96
"2022-05-25 06:06:00",8.8,8.2,0.0,0.0,49,1011.6,1,1,"",96
"2022-05-25 06:07:00",8.9,8.3,0.0,0.0,53,1011.6,1,2,"",96
"2022-05-25 06:08:00",8.9,8.3,0.0,0.0,53,1011.6,1,3,"",96
"2022-05-25 06:09:00",9.0,8.4,0.0,0.0,51,1011.6,1,2,"",96
"2022-05-25 06:10:00",9.1,8.5,0.0,0.0,53,1011.6,1,1,"",96
"2022-05-25 06:11:00",9.1,8.5,0.0,0.0,51,1011.6,1,2,"",96
"2022-05-25 06:12:00",9.2,8.6,0.0,0.0,53,1011.6,2,6,7.7,96
"2022-05-25 06:13:00",9.2,8.6,0.0,0.0,56,1011.6,1,2,"",96
"2022-05-25 06:14:00",9.3,8.7,0.0,0.0,62,1011.6,1,2,"",96
"2022-05-25 06:15:00",9.4,8.8,0.0,0.0,63,1011.6,1,3,"",96
"2022-05-25 06:16:00",9.4,8.8,0.0,0.0,65,1011.7,1,2,"",96
"2022-05-25 06:17:00",9.6,9.0,0.0,0.0,63,1011.6,1,3,"",96
"2022-05-25 06:18:00",9.6,9.0,0.0,0.0,62,1011.6,1,2,"",96
"2022-05-25 06:19:00",9.7,9.1,0.0,0.0,63,1011.7,1,2,"",96
"2022-05-25 06:20:00",9.8,9.2,0.0,0.0,63,1011.7,1,2,"",96
"2022-05-25 06:21:00",9.9,9.3,0.0,0.0,62,1011.6,2,4,9.2,96
"2022-05-25 06:22:00",9.9,9.3,0.0,0.0,63,1011.6,2,4,9.2,96
"2022-05-25 06:23:00",10.0,9.4,0.0,0.0,63,1011.6,2,4,9.2,96
"2022-05-25 06:24:00",10.1,9.5,0.0,0.0,67,1011.6,1,3,"",96
"2022-05-25 06:25:00",10.2,9.6,0.0,0.0,67,1011.7,1,2,"",96
"2022-05-25 06:26:00",10.2,9.6,0.0,0.0,60,1011.7,1,3,"",96
"2022-05-25 06:27:00",10.3,9.7,0.0,0.0,58,1011.7,2,3,"",96
"2022-05-25 06:28:00",10.3,9.7,0.0,0.0,58,1011.7,1,2,"",96
"2022-05-25 06:29:00",10.3,9.7,0.0,0.0,56,1011.7,1,3,"",96
"2022-05-25 06:30:00",10.3,9.7,0.0,0.0,54,1011.7,1,3,"",96
"2022-05-25 06:31:00",10.4,9.6,0.0,0.0,51,1011.7,2,5,"",95
"2022-05-25 06:32:00",10.4,9.6,0.0,0.0,49,1011.7,1,3,"",95
"2022-05-25 06:33:00",10.5,9.7,0.0,0.0,47,1011.7,1,2,"",95
"2022-05-25 06:34:00",10.5,9.7,0.0,0.0,53,1011.7,1,2,"",95
"2022-05-25 06:35:00",10.6,9.8,0.0,0.0,56,1011.6,1,2,"",95
"2022-05-25 06:36:00",10.6,9.8,0.0,0.0,60,1011.6,1,2,"",95
"2022-05-25 06:37:00",10.6,9.8,0.0,0.0,62,1011.5,1,2,"",95
"2022-05-25 06:38:00",10.7,9.9,0.0,0.0,63,1011.6,1,2,"",95
"2022-05-25 06:39:00",10.7,9.9,0.0,0.0,65,1011.7,1,3,"",95
"2022-05-25 06:40:00",10.7,9.9,0.0,0.0,63,1011.6,2,3,"",95
"2022-05-25 06:41:00",10.7,9.9,0.0,0.0,63,1011.7,1,2,"",95
"2022-05-25 06:42:00",10.7,9.9,0.0,0.0,62,1011.7,1,2,"",95
"2022-05-25 06:43:00",10.7,9.9,0.0,0.0,62,1011.7,1,2,"",95
"2022-05-25 06:44:00",10.7,9.9,0.0,0.0,62,1011.7,1,2,"",95
"2022-05-25 06:45:00",10.7,9.8,0.0,0.0,72,1011.6,1,2,"",94
"2022-05-25 06:46:00",10.8,9.9,0.0,0.0,62,1011.6,2,3,"",94
"2022-05-25 06:47:00",10.8,9.9,0.0,0.0,63,1011.6,2,2,"",94
"2022-05-25 06:48:00",10.8,9.9,0.0,0.0,63,1011.7,2,3,"",94
"2022-05-25 06:49:00",10.9,10.0,0.0,0.0,63,1011.7,1,2,"",94
"2022-05-25 06:50:00",10.9,10.0,0.0,0.0,63,1011.7,2,3,"",94
"2022-05-25 06:51:00",10.9,10.0,0.0,0.0,65,1011.6,1,3,"",94
"2022-05-25 06:52:00",10.9,10.0,0.0,0.0,67,1011.6,1,2,"",94
"2022-05-25 06:53:00",10.9,10.0,0.0,0.0,69,1011.6,2,2,"",94
"2022-05-25 06:54:00",10.9,10.0,0.0,0.0,70,1011.6,1,2,"",94
"2022-05-25 06:55:00",10.9,10.0,0.0,0.0,72,1011.7,1,2,"",94
"2022-05-25 06:56:00",10.9,10.0,0.0,0.0,72,1011.7,1,2,"",94